#timestamp,LO_Frequency,Hit 
1501671615.1,286046981.0,N
1501671635.8,286046984.9,N
1501671655.7,286046988.6,N
1501671675.5,286046995.5,N
1501671695.3,286046998.3,N
1501671715.2,286047000.5,N
1501671735.9,286046999.0,N
1501671755.7,286046998.6,N
1501671775.6,286047001.1,N
1501671795.4,286047001.9,N
1501671815.2,286047007.1,N
1501671835.0,286047006.5,N
1501671835.9,286047006.5,N
1501671855.8,286047009.1,N
1501671875.6,286047011.4,N
1501671895.4,286047018.6,N
1501671915.3,286047020.6,N
1501671935.1,286047022.3,N
1501671936.0,286047022.3,N
1501671955.8,286047021.3,N
1501671975.7,286047019.3,N
1501671995.5,286047023.6,N
1501672015.3,286047021.1,N
1501672035.2,286047021.2,N
1501672055.9,286047019.8,N
1501672075.7,286047022.0,N
1501672095.5,286047024.2,N
1501672115.4,286047028.1,N
1501672135.2,286047029.3,N
1501672155.0,286047030.1,N
1501672155.9,286047030.1,N
1501672175.8,286047034.0,N
1501672195.6,286047034.0,N
1501672215.4,286047036.4,P
1501672235.3,286047019.4,N
1501672255.1,286047021.8,N
1501672275.8,286047019.2,N
1501672295.7,286047021.1,N
1501672315.5,286047022.9,P
1501672335.3,286046998.4,P
1501672355.2,286046996.6,N
1501672375.0,286046994.5,N
1501672375.9,286046994.5,N
1501672395.7,286046992.6,N
1501672415.6,286046989.3,N
1501672435.4,286046987.6,N
1501672455.2,286046986.4,N
1501672475.1,286046981.9,N
1501672476.0,286046981.9,N
1501672495.8,286046978.9,N
1501672515.6,286046979.9,N
1501672535.5,286046979.5,N
1501672555.3,286046983.2,N
1501672575.1,286046983.4,N
1501672595.9,286046982.8,N
1501672615.7,286046984.9,N
1501672635.5,286046982.1,N
1501672655.3,286046989.9,N
1501672675.2,286046992.6,N
1501672695.0,286046994.7,N
1501672695.9,286046994.7,N
1501672715.7,286046991.9,N
1501672735.6,286046996.0,N
1501672755.4,286046992.4,N
1501672775.2,286046991.3,N
1501672795.1,286046991.7,N
1501672796.0,286046991.7,N
1501672815.8,286046994.1,N
1501672835.6,286046997.6,N
1501672855.5,286046997.8,N
1501672875.3,286046995.3,N
1501672895.1,286046995.8,N
1501672915.9,286046995.5,N
1501672935.7,286046994.0,N
1501672955.5,286046992.7,N
1501672975.3,286046983.8,N
1501672995.2,286046982.9,N
1501673015.0,286046982.5,N
1501673015.9,286046982.5,N
1501673035.7,286046983.8,N
1501673055.6,286046984.4,N
1501673075.4,286046985.3,N
1501673095.2,286046990.7,N
1501673115.1,286046990.7,N
1501673116.0,286046990.7,N
1501673135.8,286046991.0,N
1501673155.6,286046991.9,N
1501673175.5,286046992.6,N
1501673195.3,286046988.5,N
1501673215.1,286046991.0,N
1501673235.8,286046986.9,N
1501673255.7,286046981.1,P
1501673275.5,286046985.6,P
1501673295.4,286046980.9,P
1501673315.2,286046982.0,P
1501673335.0,286046994.5,P
1501673335.9,286046994.5,N
1501673355.8,286046998.0,N
1501673375.6,286046997.7,N
1501673395.4,286046994.8,N
1501673415.3,286046991.3,N
1501673435.1,286046988.8,N
1501673436.0,286046988.8,N
1501673455.8,286046985.8,N
1501673475.7,286046983.8,P
1501673495.5,286046993.0,N
1501673515.3,286046989.6,N
1501673535.2,286046985.8,P
1501673555.9,286046991.8,P
1501673575.7,286046993.2,N
1501673595.6,286046991.6,P
1501673615.4,286047000.5,N
1501673635.2,286046998.4,N
1501673655.1,286046997.2,N
1501673656.0,286046997.2,N
1501673675.8,286046995.0,N
1501673695.6,286046994.4,N
1501673715.5,286046999.5,N
1501673735.3,286046999.8,N
1501673755.1,286047005.7,N
1501673775.8,286047008.5,N
1501673795.7,286047010.7,N
1501673815.5,286047012.2,N
1501673835.3,286047016.4,N
1501673855.2,286047021.6,N
1501673875.9,286047020.7,N
1501673895.7,286047024.2,N
1501673915.6,286047024.5,N
1501673935.4,286047025.0,N
1501673955.2,286047028.2,N
1501673975.1,286047023.9,N
1501673976.0,286047023.9,N
1501673995.8,286047024.2,N
1501674015.6,286047022.7,N
1501674035.4,286047019.9,N
1501674055.3,286047019.7,N
1501674075.1,286047019.1,N
1501674095.8,286047019.2,N
1501674115.7,286047017.9,N
1501674135.5,286047017.0,N
1501674155.3,286047010.9,N
1501674175.2,286047015.3,N
1501674195.9,286047016.6,N
1501674215.7,286047020.4,N
1501674235.6,286047019.2,N
1501674255.4,286047018.1,N
1501674275.2,286047018.8,N
1501674295.0,286047017.1,N
1501674295.9,286047017.1,N
1501674315.8,286047013.0,N
1501674335.6,286047011.5,N
1501674355.4,286047008.8,N
1501674375.3,286047009.2,N
1501674395.1,286047008.5,N
1501674415.8,286047007.6,N
1501674435.7,286047008.7,N
1501674455.5,286047006.7,N
1501674475.3,286047008.0,N
1501674495.2,286047005.2,N
1501674515.9,286047004.0,N
1501674535.7,286047006.0,N
1501674555.5,286047006.4,N
1501674575.4,286047008.7,N
1501674595.2,286047008.1,N
1501674615.0,286047011.5,N
1501674615.9,286047011.5,N
1501674635.8,286047008.0,N
1501674655.6,286047007.2,N
1501674675.4,286047008.4,N
1501674695.3,286047007.5,N
1501674715.1,286046999.7,N
1501674716.0,286046999.7,N
1501674735.8,286046998.8,N
1501674755.7,286046999.1,N
1501674775.5,286047000.9,N
1501674795.3,286047002.5,N
1501674815.1,286046997.2,N
1501674835.9,286047002.4,N
1501674855.7,286047001.9,N
1501674875.5,286047001.4,N
1501674895.4,286047004.3,N
1501674915.2,286047003.0,N
1501674935.0,286047010.5,N
1501674935.9,286047010.5,N
1501674955.8,286047009.9,N
1501674975.6,286047014.0,P
1501674995.4,286047010.3,N
1501675015.3,286047007.9,N
1501675035.1,286047014.0,P
1501675055.9,286047005.4,N
1501675075.7,286047006.1,N
1501675095.5,286047009.5,N
1501675115.4,286047013.7,P
1501675135.2,286047002.1,N
1501675155.0,286047002.1,N
1501675155.9,286047002.1,N
1501675175.8,286047002.5,N
1501675195.6,286047005.7,N
